Powrót do katalogu

COSMOS 2303

AktywnyMilitariaPO
NORAD 23445·PAYLOAD·🇷🇺 Russia

Wystrzelony Dec 26, 1994 z Plesetsk Cosmodrome

Loading…

Następne Przeloty (najbliższe 24 godziny)

TLE

ŚwieżeSource: Space-Track

Epoka: Sep 14, 2026, 19:36 UTC

1 23445U 94086E   26257.81693473  .00000004  00000-0 -35294-4 0  9990
2 23445  82.5715 288.9863 0011438  11.7642 162.2996 12.60563969459279

Śledź COSMOS 2303 w czasie rzeczywistym z AllMySat

Download on the App Store